#timestamp,LO_Frequency,Hit,StdDev 
1566878415.6,286047001.0,N
1566878435.4,286046998.5,N
1566878455.3,286046999.3,N
1566878475.1,286046999.1,N
1566878476.0,286046999.1,N
1566878495.8,286047001.0,N
1566878515.7,286047000.8,N
1566878535.5,286046998.5,N
1566878555.4,286046999.4,N
1566878575.2,286046999.4,N
1566878595.0,286046999.6,N
1566878595.9,286046999.6,N
1566878615.8,286046999.5,N
1566878635.6,286046997.3,N
1566878655.4,286046998.3,N
1566878675.3,286046997.1,N
1566878695.1,286046998.1,N
1566878715.9,286046998.9,N
1566878735.7,286046998.5,N
1566878755.5,286047002.8,N
1566878775.4,286047002.8,N
1566878795.2,286047002.5,N
1566878815.1,286047000.5,N
1566878816.0,286047000.5,N
1566878835.8,286047000.1,N
1566878855.6,286046999.7,N
1566878875.5,286047002.7,N
1566878895.3,286046999.7,N
1566878915.1,286047002.8,N
1566878935.9,286047004.1,N
1566878955.7,286047001.4,N
1566878975.6,286047002.6,N
1566878995.4,286047002.6,N
1566879015.2,286047001.6,N
1566879035.1,286047004.0,N
1566879036.0,286047004.0,N
1566879055.8,286047003.0,N
1566879075.7,286047003.2,N
1566879095.5,286047003.1,N
1566879115.3,286047005.6,N
1566879135.2,286047005.0,N
1566879155.0,286047007.1,Y
1566879175.9,286047003.2,P
1566879195.7,286047003.2,P
1566879215.5,286047003.1,P
1566879235.4,286047003.7,Y
1566879255.2,286047000.6,P
1566879275.1,286046998.2,N
1566879276.0,286046998.2,N
1566879295.8,286046998.8,N
1566879315.6,286046999.0,N
1566879335.5,286046997.1,N
1566879355.3,286046999.2,N
1566879375.2,286046999.4,N
1566879395.9,286046999.4,N
1566879415.7,286046998.0,N
1566879435.6,286046997.7,N
1566879455.4,286046997.8,N
1566879475.3,286046997.5,N
1566879495.1,286046995.4,Y
1566879496.0,286046995.4,P
1566879515.8,286046997.1,N
1566879535.7,286046996.6,N
1566879555.5,286046997.1,N
1566879575.4,286046997.4,N
1566879595.2,286046997.2,N
1566879615.0,286046996.7,Y
1566879615.9,286046996.7,P
1566879635.8,286047000.8,P
1566879655.6,286047000.7,N
1566879675.5,286046998.1,N
1566879695.3,286047000.8,N
1566879715.1,286046998.3,N
1566879735.9,286047001.2,N
1566879755.7,286046998.5,N
1566879775.5,286046998.6,N
1566879795.4,286046998.1,N
1566879815.2,286046998.1,N
1566879835.1,286047001.0,N
1566879836.0,286047001.0,N
1566879855.8,286047000.8,N
1566879875.6,286046998.2,N
1566879895.5,286046998.9,N
1566879915.3,286046999.0,N
1566879935.1,286046998.8,N
1566879955.9,286046998.4,N
1566879975.7,286046996.7,N
1566879995.6,286046998.0,N
1566880015.4,286046995.9,N
1566880035.2,286046995.2,Y
1566880055.1,286046996.9,P
1566880056.0,286046996.9,P
1566880075.8,286046998.3,N
1566880095.7,286046998.6,N
1566880115.5,286046998.2,N
1566880135.3,286046999.5,N
1566880155.2,286046996.6,Y
1566880175.0,286047000.9,P
1566880175.9,286047000.9,N
1566880195.8,286046998.5,N
1566880215.6,286046998.6,N
1566880235.4,286046998.2,N
1566880255.3,286046998.8,N
1566880275.1,286046997.1,N
1566880295.9,286046996.9,N
1566880315.7,286046997.7,N
1566880335.5,286046996.9,N
1566880355.4,286046999.2,N
1566880375.2,286046999.0,N
1566880395.0,286046999.3,N
1566880395.9,286046999.3,N
1566880415.8,286046998.8,N
1566880435.6,286046998.9,N
1566880455.5,286046999.1,N
1566880475.3,286046998.4,N
1566880495.1,286046997.2,N
1566880515.9,286046996.6,Y
1566880535.7,286046998.1,P
1566880555.6,286047002.8,P
1566880575.4,286046999.8,N
1566880595.2,286046998.1,N
1566880615.1,286046998.1,N
1566880616.0,286046998.1,N
1566880635.8,286046999.0,N
1566880655.7,286046999.5,N
1566880675.5,286046999.0,N
1566880695.3,286047000.4,N
1566880715.2,286047002.6,N
1566880735.9,286046999.8,N
1566880755.7,286047002.6,N
1566880775.6,286047002.1,N
1566880795.7,286047002.6,N
1566880815.5,286047002.5,N
1566880835.4,286047002.2,N
1566880855.2,286047002.0,N
1566880875.0,286047001.7,N
1566880875.9,286047001.7,N
1566880895.8,286047000.1,N
1566880915.6,286046998.6,N
1566880935.5,286046998.5,N
1566880955.3,286046998.8,N
1566880975.1,286047001.0,N
1566880995.9,286047000.5,N
1566881015.7,286047001.1,N
1566881035.5,286047000.6,N
1566881055.4,286047000.3,N
1566881075.2,286046998.1,N
1566881095.1,286046998.6,N
1566881096.0,286046998.6,N
1566881115.8,286046998.2,N
1566881135.6,286047000.2,N
1566881155.5,286047002.5,N
1566881175.3,286047001.9,N
1566881195.1,286047001.4,N
1566881215.9,286047002.2,N
1566881235.7,286047002.2,N
1566881255.6,286047001.7,N
1566881275.4,286047002.4,N
1566881295.2,286047002.5,N
1566881315.1,286047002.4,N
1566881316.0,286047002.4,N
1566881335.8,286047002.0,N
1566881355.7,286047002.5,N
1566881375.5,286047004.2,N
1566881395.3,286047002.1,N
1566881415.2,286047002.5,N
1566881435.0,286047001.5,N
1566881435.9,286047001.5,N
1566881455.8,286047002.2,N
1566881475.6,286047002.3,N
1566881495.4,286047000.9,N
1566881515.3,286047002.3,N
1566881535.1,286046999.8,N
1566881555.9,286046999.7,N
1566881575.7,286047001.8,N
1566881595.5,286047003.5,N
1566881615.4,286047001.7,N
1566881635.2,286047002.6,N
1566881655.0,286047002.1,N
1566881655.9,286047002.1,N
1566881675.8,286047003.6,Y
1566881695.6,286047002.3,P
1566881715.5,286047002.1,P
1566881735.3,286047001.0,P
1566881755.1,286047000.3,N
1566881775.9,286047000.2,N
1566881795.7,286047002.2,N
1566881815.6,286047003.6,Y
1566881835.4,286047001.6,P
1566881855.2,286047001.4,P
1566881875.1,286047002.8,P
1566881876.0,286047002.8,Y
1566881895.8,286047001.2,P
1566881915.7,286046998.1,P
1566881935.5,286047001.2,N
1566881955.3,286046996.9,N
1566881975.2,286046997.8,N
1566881995.0,286046997.3,N
1566881995.9,286046997.3,N
